Погода в Жажлеве

Россия / Ивановская область     57°27′18″N   42°24′41″E
темп.,
°C
ветер,
м/с
пор.,
м/с
влажн.,
%
обл.,
%
осадки,
мм/ч
давл.,
гПа
погр.,
м
11 апреля, вс
вс1100:00−1ю310920 0.0 1026167
03:000ююз310922 0.0 1026204
06:00−1ююз310870 0.0 1027187
09:00+5юз36745 0.0 1028318
12:00+8зюз36715 0.0 1029599
15:00+10зюз36728 0.0 1030775
18:00+7зсз119244 0.0 103210
21:00+5вюв229595 0.0 103442
12 апреля, пн
пн1200:00+4сз009898 0.0 103511
03:00+4вюв2397100 0.0 103761
06:00+4вюв2594100 0.0 1037112
09:00+7вюв358199 0.0 1037234
12:00+11вюв366787 0.0 1037759
15:00+12вюв4666100 0.0 1036818
18:00+9вюв3882100 0.0 1034421
21:00+6вюв31192100 0.0 1034361
13 апреля, вт
вт1300:00+5вюв41196100 0.0 1033441
03:00+5юв3897100 0.0 1032269
06:00+4юв3998100 0.0 1030224
09:00+10ю378090 0.0 1029305
12:00+15ю4763100 0.0 1028593
15:00+18ю4755100 0.0 10271189
18:00+14ю3870100 0.0 1026188
21:00+10ю3980100 0.0 1026160
14 апреля, ср
ср1400:00+8ю3876100 0.0 1026143
03:00+7ююз278149 0.0 1025117
06:00+7ю278355 0.0 1025116
09:00+12ююз356332 0.0 1024264
12:00+17ююз47465 0.0 1023817
15:00+19ююз463924 0.0 10221322
18:00+16ю3753100 0.0 1021168
21:00+11ю2768100 0.0 1021115
15 апреля, чт
чт1500:00+10ю267192 0.0 1021111
03:00+8зюз2274100 0.0 102011
06:00+8зюз1176100 0.0 101910
09:00+13зсз016099 0.0 1018319
12:00+16сз225143 0.0 1018986
15:00+15ссз4359100 0.0 10171107
18:00+9с5876100 0.0 1018572
21:00+5с51187100 0.1 1020664